Location: Observatoire
(46.1952°N, 5.3391°E)
Time: 06:37:49
(UTC+01:00)

A-11 Canister half - Pass Details

Date: 20 February 2026
Orbit: 1524 x 1683 km, 47.3° (Epoch: 13 March)

Event Time Altitude Azimuth Distance (km) Brightness Sun altitude
Rises 23:34:03 0° 291° (WNW) 4,677 12.0 -50.8°
Reaches altitude 10° 23:37:36 10° 281° (W) 3,697 11.2 -51.1°
Enters shadow 23:39:32 16° 272° (W) 3,233 10.8 -51.2°
Maximum altitude 23:45:03 28° 227° (SW) 2,568 - -51.7°
Drops below altitude 10° 23:52:38 10° 173° (S) 3,749 - -52.3°
Sets 23:56:17 0° 162° (SSE) 4,753 - -52.5°
